Regional Weather Roundup
Issued by NWS

Home | Current Version | Previous Version | Text Only | Print | Product List | Glossary On
Versions: 1 2 3 4 5 6 7 8 9 10 11 12 13 14 15 16 17 18 19 20 21 22 23 24 25 26 27 28 29 30 31 32 33 34 35 36 37 38 39 40 41 42 43 44 45 46 47 48 49 50
000
ASUS43 KDTX 230710
RWRMI
MICHIGAN HOURLY REGIONAL WEATHER ROUNDUP
NATIONAL WEATHER SERVICE DETROIT/PONTIAC MI
300 AM EDT WED APR 23 2014

NOTE: "FAIR" INDICATES FEW OR NO CLOUDS BELOW 12,000 FEET WITH NO
SIGNIFICANT WEATHER AND/OR OBSTRUCTION TO VISIBILITY.

MIZ047>049-052>055-059>063-066>070-074>076-081>083-230800-
SOUTHEAST LOWER MICHIGAN

CITY           SKY/WX    TMP DP  RH WIND       PRES   REMARKS
ADRIAN         CLEAR     37  27  67 N12       29.98S
ALMA           CLEAR     33  28  81 NW8       30.02S
ANN ARBOR      CLOUDY    37  27  67 N12       29.97R
BAD AXE        FLURRIES  35  32  88 N9        29.96R
DETROIT CITY   CLOUDY    41  29  62 N9G20     29.95S
DETROIT        CLOUDY    40  29  64 NW15      29.96S
FLINT          CLOUDY    38  28  67 NW13      29.98S
GROSSE ILE     CLOUDY    41  30  65 NW13      29.94S
HILLSDALE      CLEAR     36  26  68 NW8       29.97S
HOWELL         CLOUDY    35  28  75 NW12      29.98S

CITY           SKY/WX    TMP DP  RH WIND       PRES   REMARKS
JACKSON        PTCLDY    33  26  75 N8        29.99S
LAMBERTVILLE   CLEAR     37  30  75 NW8       29.98R
LANSING        CLOUDY    36  27  69 N12       30.01S
LAPEER         NOT AVBL
MASON          CLOUDY    36  28  75 N8        30.00S
MONROE         PTCLDY    37  28  70 NW7       29.95S
MT. CLEMENS    CLOUDY    38  31  73 NW12G23   29.93S
PONTIAC        CLOUDY    37  28  70 NW14      29.95S
PORT HOPE        N/A     37  33  85 NW9G20    29.93S
PORT HURON     CLOUDY    36  34  93 NW9       29.94R
TRI CITIES     PTCLDY    36  28  73 NW12      30.00S
YPSILANTI      CLOUDY    40  29  64 NW10      29.97S
$$
MIZ043>046-050>051-056>058-064>065-071>073-077>080-230800-
SOUTHWEST LOWER MICHIGAN

CITY           SKY/WX    TMP DP  RH WIND       PRES   REMARKS
BATTLE CREEK   PTCLDY    35  26  69 N10       30.02R
BENTON HARBOR  CLEAR     36  29  75 VRB6      30.07R
BIG RAPIDS     CLEAR     32  26  78 NW6       30.02R
COLDWATER      CLEAR     34  28  77 CALM      30.00S
HOLLAND        CLEAR     36  26  67 N6        30.07R
GRAND RAPIDS   CLEAR     35  25  66 NW7       30.04R
KALAMAZOO      CLEAR     35  25  66 N13       30.02S
MARSHALL       PTCLDY    34  26  72 N5        30.00R
MUSKEGON       CLEAR     35  25  66 NW10      30.08R
$$
MIZ016>042-230800-
NORTHERN LOWER MICHIGAN

CITY           SKY/WX    TMP DP  RH WIND       PRES   REMARKS
ALPENA         CLOUDY    34  28  79 NW9       29.98R
BEAVER ISLAND  CLEAR     31  28  90 NW8       30.08R
BELLAIRE       CLEAR     32  28  86 CALM      30.06R
CADILLAC       PTCLDY    30  27  88 NW9G16    30.01R
CHARLEVOIX     CLEAR     32  29  88 NW5       30.09S
FRANKFORT      SUNNY     33  28  84 N6        30.09R
GAYLORD        CLEAR     29  27  92 VRB7      30.01R
GRAYLING       CLEAR     31  28  90 NW8       30.01S
HARBOR SPRINGS CLEAR     32  28  83 NW6       30.04S
HOUGHTON LAKE  CLEAR     31  27  85 NW9       30.00S
MANISTEE       CLEAR     34  27  75 N9        30.10R
OSCODA         CLOUDY    38  29  72 N9G18     29.96S
PELLSTON       CLEAR     31  26  82 NW9       30.05R
TRAVERSE CITY  CLOUDY    34  28  79 NW12      30.06R
$$
MIZ007>008-015-230800-
EASTERN UPPER MICHIGAN

CITY           SKY/WX    TMP DP  RH WIND       PRES   REMARKS
KINROSS        CLEAR     32  28  86 NW13      30.03R
MACKINAC ISLAN CLEAR     30  27  88 NW9       30.04R
NEWBERRY       CLEAR     29  27  91 W6        30.07R
S. S. MARIE    CLEAR     32  25  75 W7        30.02R
$$
MIZ004>006-011>014-085-230800-
CENTRAL UPPER MICHIGAN

CITY           SKY/WX    TMP DP  RH WIND       PRES   REMARKS
MANISTIQUE     CLEAR     28  26  91 NW7       30.09S
ESCANABA       CLEAR     28  25  86 NW6       30.11F
MENOMINEE      CLEAR     30  25  80 N5        30.13R
SAWYER-GWINN   CLEAR     27  24  87 NW5       30.11R
$$
MIZ001>003-009>011-084-230800-
WESTERN UPPER MICHIGAN

CITY           SKY/WX    TMP DP  RH WIND       PRES   REMARKS
IRON MOUNTAIN  CLEAR     23  18  81 CALM      30.13R
HOUGHTON       CLEAR     24  20  84 NW6       30.12R
COPPER HARBOR    N/A     30  25  81 CALM      30.13R
IRONWOOD       CLEAR     28  23  80 CALM      30.11R
$$

ABBREVIATIONS USED IN REMARKS
   TC - TEMPERATURE IN CELSIUS
  WCI - WIND CHILL INDEX
   HX - HEAT INDEX
  VSB - VISIBILITY




USA.gov is the U.S. government's official web portal to all federal, state and local government web resources and services.